Theta_e
327 326 327 329 330 328 327 327 327 328 328 328 327 327 326 325 325 325 325 324 324 324 323 323 322 323 325 325 325 325 325 326 327 325 324 324 324 324 324 325 325 322 322 323 325 326 325 325 324 325 325 325 325 324 324 323 323 322 320 318 317 314 306 303 301 302 305 307 307 306 307 306 304 304 303 304 306 309 309 306 306 304 302 301 302
328 327 324 325 327 325 326 326 327 328 327 327 326 326 325 324 324 324 323 323 323 323 321 322 322 322 323 323 323 325 325 325 326 327 326 324 323 325 324 325 324 322 321 322 323 326 326 325 325 324 325 324 323 325 324 322 322 321 320 319 316 313 308 306 302 301 303 304 305 307 306 306 304 304 302 302 303 307 308 307 308 305 302 301 300
328 326 324 324 324 325 326 326 327 326 326 326 325 325 324 324 324 322 322 322 322 322 321 320 320 321 320 321 322 323 324 323 324 326 326 325 324 324 324 324 322 322 322 322 324 326 325 324 324 325 326 323 323 323 323 321 321 320 319 317 315 311 309 307 305 303 303 302 304 306 305 306 304 304 304 303 304 307 307 307 308 307 305 303 302
326 325 324 324 323 324 325 325 325 325 324 324 324 324 324 323 323 322 322 322 322 319 319 318 319 320 321 321 322 322 322 322 322 324 325 325 325 325 325 324 323 323 324 324 326 326 324 323 323 324 324 323 322 321 321 319 318 316 314 313 312 309 310 307 307 305 304 304 305 307 306 305 304 306 306 305 303 304 307 307 309 308 306 305 304
324 324 324 323 323 323 323 324 324 324 323 324 323 323 323 323 322 322 321 321 319 318 318 318 320 320 321 320 321 321 322 321 321 321 323 323 323 325 325 325 323 322 323 323 328 325 324 323 324 323 322 321 319 320 320 317 318 316 314 310 309 310 313 309 308 309 307 306 306 306 307 306 307 306 306 304 304 304 306 306 308 308 307 305 306
323 323 323 323 323 322 322 322 323 323 323 323 323 323 322 322 321 321 321 318 317 317 318 318 320 320 319 319 319 317 317 318 318 319 319 321 321 320 322 323 321 321 321 323 325 324 324 324 323 321 321 321 320 318 320 317 317 315 314 311 308 309 312 309 310 309 308 306 307 306 304 305 304 305 307 306 304 304 304 305 307 308 307 305 306
323 321 321 322 321 321 322 321 322 323 323 323 323 323 322 321 320 320 319 317 317 317 317 317 316 315 314 314 313 312 311 310 311 313 316 318 319 319 318 319 320 319 320 324 324 323 324 324 323 323 323 322 321 320 319 319 318 315 316 313 308 309 311 310 310 309 309 308 307 306 304 305 304 303 306 308 306 306 304 303 303 307 308 307 306
322 321 321 321 321 321 322 323 323 323 324 324 323 322 322 321 320 319 318 317 317 316 316 317 315 315 313 311 310 308 307 306 305 307 313 317 317 317 317 316 316 317 320 320 321 322 321 321 322 323 323 322 321 318 317 317 317 313 314 315 310 306 308 308 309 309 309 309 307 306 306 304 305 308 308 307 304 304 306 305 303 303 304 306 307
321 321 321 320 320 321 322 322 323 323 324 323 322 321 321 320 319 317 317 317 318 316 317 317 314 312 311 309 307 306 304 302 301 301 305 313 318 317 316 317 316 315 316 317 319 320 319 320 320 320 321 316 311 311 314 315 313 310 311 314 314 314 312 311 309 308 308 308 307 308 307 305 305 307 305 304 304 305 306 307 305 305 305 306 307
320 320 320 319 319 321 322 320 321 322 322 322 321 321 320 318 317 316 317 316 314 316 316 315 313 309 307 305 303 302 300 300 298 297 298 305 314 318 317 316 315 315 315 315 314 316 316 315 317 316 310 308 305 302 302 305 309 310 310 310 310 312 311 310 310 310 310 308 308 307 306 305 305 307 307 306 307 308 309 308 306 307 307 307 307
319 320 321 320 320 321 320 320 321 320 320 320 320 321 319 317 316 315 314 314 316 316 316 313 311 308 305 303 300 299 297 297 294 292 294 296 309 314 316 316 315 314 314 314 312 311 310 311 310 313 312 310 304 300 299 299 300 302 304 308 311 310 308 307 308 308 307 307 307 308 306 307 308 308 308 308 308 307 306 308 308 308 307 304 303
308 312 317 320 319 320 319 320 320 320 320 320 319 319 316 315 314 314 314 315 315 314 312 310 308 305 302 300 298 297 295 294 292 293 293 293 298 309 314 315 316 315 314 315 313 310 309 312 315 316 315 314 311 306 302 298 296 297 297 299 300 301 304 307 306 306 306 304 304 307 307 308 309 308 310 309 310 309 309 307 306 306 304 304 302
303 305 307 315 319 320 320 320 319 319 319 319 319 319 317 317 316 316 315 314 312 310 308 306 303 301 299 297 295 295 294 293 292 293 293 293 293 305 317 316 315 315 314 316 315 314 314 314 311 310 309 312 312 314 308 304 299 297 297 297 298 299 299 300 305 308 308 305 306 305 307 309 309 309 313 314 312 310 307 307 305 305 304 303 303
302 302 304 305 310 318 319 319 317 317 318 318 318 318 317 316 315 314 313 312 309 307 305 302 301 299 297 296 294 294 293 293 292 292 293 294 294 303 316 315 316 316 316 318 318 317 315 312 308 303 300 299 300 306 314 316 315 315 315 314 312 306 298 297 297 298 302 308 307 305 305 311 309 309 311 314 314 312 311 310 308 308 307 308 307
301 301 301 303 304 306 313 314 314 314 315 314 315 314 314 313 312 311 310 309 307 305 302 301 300 299 297 295 294 293 293 292 291 292 293 295 299 304 314 317 317 317 318 319 318 316 311 306 301 297 296 296 297 298 308 314 314 314 314 315 315 316 314 313 311 310 309 309 308 308 309 309 311 310 311 309 313 314 314 312 312 312 313 309 308
300 301 301 302 302 304 305 307 307 307 307 308 308 308 310 311 310 309 309 308 307 305 303 301 299 297 296 295 294 292 292 291 291 293 294 296 300 308 312 316 315 312 310 311 314 312 305 300 297 295 295 295 295 295 300 308 307 306 306 307 309 313 311 307 298 298 301 303 305 306 308 308 303 306 304 304 305 307 308 309 309 309 311 308 311
299 300 300 301 302 302 303 304 304 304 305 305 305 305 305 306 306 307 306 306 306 305 302 301 300 298 297 295 293 293 293 292 291 293 295 297 301 307 308 310 309 304 302 301 302 303 301 299 297 295 294 294 293 293 295 299 300 299 300 301 301 307 305 303 299 297 296 296 295 295 296 297 298 298 296 295 300 304 307 308 309 309 308 307 308
299 299 299 301 301 302 302 303 302 303 303 303 303 304 304 304 304 304 304 303 303 303 303 303 302 300 298 296 295 293 293 293 292 293 294 296 299 302 302 304 304 302 299 298 297 298 300 302 300 294 293 293 291 292 294 297 298 298 298 298 296 301 301 298 298 298 296 295 295 295 296 296 297 298 300 300 298 299 306 308 310 307 308 307 307
298 299 299 300 301 301 302 302 302 303 303 303 304 303 303 303 304 305 304 304 303 303 302 302 302 302 300 298 298 294 293 294 292 292 293 294 297 298 299 301 301 301 300 299 297 295 294 296 297 296 294 293 290 291 292 296 296 297 297 297 295 296 296 294 294 295 296 296 296 299 299 299 301 301 302 300 301 303 305 309 310 308 308 308 308
298 299 299 300 301 301 301 302 302 302 302 303 304 304 304 304 304 304 304 304 303 303 303 302 301 300 300 298 296 294 293 293 293 292 293 293 294 297 297 298 298 299 302 301 298 296 295 294 294 290 290 290 290 290 289 291 295 295 295 294 294 295 294 294 295 295 294 295 296 298 298 299 300 300 300 303 307 310 309 308 308 309 309 309 309
299 299 299 299 300 300 301 301 301 302 302 302 302 303 304 304 304 304 304 304 304 304 303 303 300 298 298 297 296 296 295 294 293 292 292 293 293 294 296 296 296 296 296 297 299 297 295 294 294 292 290 290 290 290 290 290 291 293 293 295 295 293 292 293 294 296 294 295 296 296 297 297 297 298 298 299 301 304 307 308 309 310 310 309 309
299 299 299 299 299 299 300 300 301 302 302 302 301 301 303 304 305 305 305 304 304 303 302 301 299 298 297 296 296 295 297 298 295 292 292 292 292 293 295 295 297 298 297 297 297 298 297 296 294 292 291 291 291 291 291 291 290 293 292 292 290 291 292 293 293 293 294 295 294 294 295 295 296 297 297 298 298 299 299 300 303 308 310 311 310
299 298 299 299 299 299 299 299 300 301 301 301 301 300 301 302 302 303 304 305 304 303 302 301 300 299 297 297 296 296 295 296 294 294 292 291 291 291 291 293 293 299 299 298 298 298 298 297 297 294 291 291 290 290 291 290 292 293 292 290 290 289 290 291 291 294 293 294 295 295 295 296 296 297 297 298 298 298 299 301 303 304 305 307 309
297 298 298 299 299 300 300 300 300 300 300 300 300 299 299 300 299 300 301 301 301 302 302 302 301 299 298 297 296 296 296 295 294 293 293 291 291 291 290 289 291 297 299 298 297 296 295 294 294 291 291 291 290 290 291 291 291 291 290 290 290 290 292 292 292 294 292 292 293 294 296 297 297 297 297 298 298 300 301 301 302 302 303 304 302
297 297 297 299 300 301 300 300 300 300 300 300 298 298 297 297 297 298 299 299 299 299 299 301 301 301 299 297 296 296 297 296 296 294 293 293 292 291 291 289 289 291 296 296 295 295 292 291 291 291 291 291 291 292 293 294 292 291 291 290 294 293 293 293 294 295 294 294 295 296 296 296 296 297 297 297 298 298 298 300 300 300 300 300 298
297 297 297 298 299 299 299 299 299 299 300 300 298 297 296 296 295 296 297 297 298 297 297 297 298 298 299 297 296 295 295 295 294 294 294 294 293 292 292 292 292 291 293 293 291 292 292 291 292 292 292 293 293 292 292 293 291 293 294 295 294 292 293 294 295 295 296 295 294 294 293 294 295 296 296 296 297 296 297 297 297 297 298 298 299
296 296 296 297 298 298 297 296 296 297 298 299 298 297 296 295 295 294 295 295 296 296 296 296 296 296 295 294 294 294 293 293 292 292 292 292 293 294 294 293 293 292 292 290 291 291 292 293 292 291 293 293 292 292 293 293 294 295 295 294 294 294 294 294 294 295 293 292 291 292 292 293 295 295 295 295 295 296 296 295 295 294 295 296 295
295 295 296 296 296 297 295 291 293 294 294 294 295 295 294 294 294 293 293 294 294 294 294 294 295 295 295 294 293 293 292 291 290 289 289 290 291 292 292 291 290 290 288 288 289 291 292 292 293 295 294 294 294 294 294 294 293 292 294 294 294 294 295 295 295 293 292 292 292 293 292 293 292 293 293 293 293 294 295 295 294 294 294 293 292
295 295 295 294 294 296 296 294 294 293 292 292 291 291 292 293 292 291 291 292 293 294 293 294 294 294 293 293 292 291 291 290 290 288 288 287 287 289 289 288 288 288 288 286 288 290 290 291 291 292 292 289 289 291 292 292 290 292 293 293 293 293 293 293 292 291 290 291 290 289 289 290 290 291 291 290 291 291 293 293 293 293 293 292 290
295 294 294 294 293 294 296 295 295 293 293 292 292 291 288 289 290 291 290 289 288 289 290 292 294 293 292 291 292 292 290 291 288 287 288 288 288 288 288 288 287 288 287 287 287 286 284 287 288 289 289 289 289 288 287 288 288 289 289 289 290 291 290 291 291 289 288 288 288 287 287 286 287 288 288 288 288 289 290 290 290 291 290 290 289
293 292 293 293 292 293 294 294 295 293 293 292 292 290 291 290 288 288 289 289 288 288 288 289 290 291 292 290 289 289 288 288 288 288 288 288 288 288 288 287 287 286 286 286 286 285 286 288 288 288 288 288 288 288 288 287 287 287 287 287 288 288 288 289 289 286 286 286 286 285 284 285 284 285 285 285 285 287 288 287 288 289 289 289 288
292 292 292 292 293 293 293 293 294 294 293 292 292 291 290 290 290 289 288 288 289 289 288 288 289 289 290 291 292 290 288 288 288 289 289 289 289 288 288 287 286 286 286 287 288 288 288 289 288 288 288 288 287 287 288 287 287 287 286 288 288 287 287 287 287 287 285 285 284 284 284 284 284 284 284 284 284 285 285 285 286 286 287 288 288
291 292 293 293 293 293 292 292 292 293 293 292 293 292 290 288 288 287 288 288 288 288 288 289 288 289 289 289 289 289 289 289 289 289 289 289 289 289 288 288 287 286 287 288 289 288 288 288 288 288 288 287 287 287 288 289 289 288 289 288 287 286 288 287 285 286 284 285 284 284 283 283 283 283 283 284 284 284 284 285 286 286 286 285 287
293 291 290 291 293 293 292 292 291 291 291 292 292 292 292 291 289 288 287 286 289 289 289 289 288 288 288 288 288 289 289 289 289 289 289 289 289 288 287 285 286 287 288 288 288 288 287 288 288 289 289 288 288 287 288 289 288 288 288 289 289 288 287 287 286 285 284 284 283 283 283 283 283 283 283 284 284 284 284 284 284 284 285 286 287
296 292 289 290 292 293 290 290 291 291 291 292 292 291 292 292 291 289 288 288 287 287 287 288 288 288 287 287 287 288 290 290 289 290 290 290 290 290 289 290 289 289 289 291 290 289 288 288 288 288 288 288 289 288 289 290 289 288 288 288 288 286 285 285 284 284 284 283 283 283 283 284 284 284 284 284 285 285 285 285 285 285 284 285 286
296 294 293 292 291 290 292 291 291 291 291 291 292 290 291 291 291 292 291 290 290 288 287 288 287 289 289 289 289 288 288 289 289 290 290 290 290 290 289 287 287 288 287 289 289 288 288 288 288 288 289 289 290 289 290 288 288 288 289 288 286 285 283 283 283 283 284 284 284 284 284 284 284 284 283 284 284 285 285 285 285 286 285 285 286
293 292 291 291 290 290 291 292 291 291 289 289 290 290 291 291 290 290 289 289 289 290 289 288 288 288 288 288 289 289 289 288 289 289 289 289 289 289 288 288 287 288 287 288 288 288 288 288 288 289 290 289 290 290 289 289 289 289 289 288 286 284 283 283 283 283 283 283 283 283 282 282 283 283 283 284 285 285 285 285 285 286 286 286 286
291 291 291 289 289 290 290 291 291 288 288 290 290 291 291 290 289 288 287 287 288 288 289 287 288 285 285 285 292 289 286 289 290 289 289 289 288 287 287 287 288 287 287 288 288 288 288 289 289 289 289 289 289 289 289 289 288 288 286 286 285 284 286 284 283 281 281 281 281 282 282 282 282 282 283 283 284 285 285 285 285 285 286 286 286
290 288 288 287 288 289 289 290 289 290 290 289 289 288 288 288 289 288 288 288 287 287 286 287 286 285 285 285 286 289 288 286 286 285 285 286 286 287 287 288 288 287 288 288 289 289 289 288 288 289 289 289 289 289 289 287 288 287 286 285 286 284 282 280 281 280 280 279 280 279 280 281 281 281 282 283 284 284 284 284 285 285 285 285 285
295 295 291 289 288 289 288 288 288 289 288 290 289 288 287 287 288 287 286 286 286 286 285 285 285 287 286 285 285 286 286 286 285 285 286 286 286 288 288 288 288 288 288 288 288 288 288 288 288 288 288 288 288 288 288 288 287 287 287 287 286 286 284 281 281 281 280 279 279 279 279 280 281 281 280 282 282 283 283 284 284 284 285 285 285
293 294 292 291 289 289 290 289 290 289 288 287 288 288 286 287 287 287 287 286 285 285 285 285 285 285 285 286 288 287 287 287 286 285 286 287 287 288 288 288 288 288 288 287 287 287 287 287 287 287 287 287 288 288 288 287 286 286 286 287 286 286 284 281 280 279 280 280 280 279 279 279 280 280 282 282 284 283 282 282 282 283 284 285 285
294 294 294 292 291 290 289 288 289 289 289 289 289 287 286 285 285 286 286 285 285 286 286 287 286 286 287 289 289 289 287 285 287 285 287 288 288 288 287 288 289 288 288 288 288 287 287 287 286 286 286 287 287 286 286 287 286 286 286 286 286 286 286 284 283 281 280 280 280 279 278 279 281 281 280 285 281 281 282 282 283 284 284 284 284
293 294 294 293 291 291 288 289 289 288 287 288 286 287 287 287 285 284 285 285 285 286 287 286 286 286 288 287 288 288 288 287 286 287 288 288 288 287 287 287 287 287 288 288 288 287 287 287 287 286 285 285 286 287 288 287 287 286 285 284 283 283 283 283 282 282 282 281 280 280 279 279 281 282 283 282 281 280 280 281 282 283 283 284 285
293 294 293 292 292 292 289 288 287 287 286 286 287 286 286 287 286 286 285 286 286 286 287 286 286 287 288 289 288 288 287 287 287 288 288 287 287 286 286 285 285 285 286 286 286 287 287 287 287 287 287 287 288 288 286 285 285 285 285 284 282 282 282 282 282 282 282 282 282 281 281 281 282 284 285 285 284 282 282 282 283 282 282 281 282
293 293 293 293 292 290 289 288 288 287 287 287 286 287 286 286 286 285 285 287 287 287 288 286 286 287 287 288 288 288 287 287 287 287 287 286 284 284 285 285 284 283 283 284 284 285 286 286 285 285 286 286 287 288 288 285 284 284 283 282 281 281 280 279 279 281 281 282 282 282 282 282 283 283 283 284 285 284 283 284 284 284 284 284 285
293 293 292 292 290 290 290 289 287 288 288 286 286 286 286 286 285 285 285 287 287 287 287 287 287 287 287 288 287 287 288 287 287 288 287 285 284 284 284 283 283 283 283 283 282 283 282 281 281 282 282 283 285 285 285 284 283 282 282 281 280 279 279 279 279 281 283 281 281 281 281 282 283 284 285 285 285 285 284 285 286 285 283 283 284
293 292 292 290 289 289 289 289 288 288 287 286 286 286 286 288 288 287 286 286 286 287 287 287 286 287 287 287 288 288 288 287 287 287 286 285 283 282 283 282 282 282 282 283 281 282 281 282 281 280 282 281 282 283 283 282 282 281 281 280 280 280 280 280 280 281 281 281 281 281 280 281 281 282 284 284 284 284 284 285 285 285 284 283 284
291 290 291 291 291 291 290 290 289 287 286 286 285 284 285 286 287 288 289 288 287 288 288 288 287 287 287 288 288 288 287 286 285 286 286 285 283 282 282 281 281 281 281 281 281 281 280 281 281 280 280 281 282 282 281 281 280 280 280 280 281 281 281 279 279 280 280 281 281 281 281 281 281 281 282 283 283 284 285 285 285 285 284 283 283
290 290 291 290 291 290 290 288 289 289 287 286 285 284 285 285 286 288 289 290 290 289 289 288 289 288 288 288 288 287 286 286 286 286 285 284 283 282 282 282 282 281 280 280 279 280 280 280 280 281 282 281 282 281 281 280 280 279 279 278 279 279 279 278 279 281 281 281 281 282 282 281 281 281 282 283 284 284 284 285 285 286 285 283 282
288 288 289 289 289 289 289 288 290 289 288 287 285 285 284 284 286 287 287 288 288 289 289 289 289 288 287 288 287 287 287 286 286 285 284 284 283 282 282 281 281 280 280 280 279 279 280 280 280 282 282 282 282 281 279 279 278 277 276 276 278 278 278 278 279 279 280 281 280 280 281 280 281 280 280 281 281 282 283 284 285 285 285 284 282
288 288 288 288 289 288 289 289 290 290 289 286 286 284 284 284 285 285 285 288 289 289 289 289 289 289 288 287 287 287 287 287 288 286 285 284 283 282 282 281 281 282 282 281 281 281 282 282 281 282 281 281 280 280 278 278 277 276 277 277 277 277 278 278 280 279 279 279 279 280 282 282 281 281 281 280 280 280 282 283 283 284 285 285 283
Wind_Speed
9 9 8 6 8 7 7 7 8 8 8 10 11 10 10 10 9 8 7 7 7 6 6 6 6 7 7 7 6 6 8 8 8 6 4 6 6 6 6 6 5 4 4 5 4 5 6 5 5 4 5 6 5 4 5 4 4 4 1 1 2 4 6 6 7 6 1 3 8 9 8 10 7 8 9 7 7 5 5 5 5 6 5 5 6
8 6 4 7 5 4 6 6 7 7 7 10 10 10 11 10 9 9 8 8 6 7 7 6 6 6 7 6 6 6 5 7 8 8 7 5 5 5 6 5 6 4 3 5 5 6 6 5 4 5 6 6 5 5 5 5 4 4 2 2 5 5 7 5 6 6 5 3 4 5 8 9 8 8 10 9 7 6 6 6 6 7 7 6 6
3 3 3 9 6 3 5 5 6 6 7 7 9 10 10 9 9 11 9 7 5 6 6 6 6 6 5 6 6 6 6 5 6 8 8 7 6 6 6 6 7 7 6 5 5 5 6 5 5 5 5 5 5 5 4 4 4 4 5 3 4 5 7 7 6 4 9 6 6 8 7 7 7 10 9 10 11 11 9 8 9 8 7 8 8
5 6 5 7 11 5 4 4 5 5 6 7 9 8 9 8 10 11 9 6 8 6 5 5 5 8 7 7 7 6 6 4 5 7 7 8 7 7 6 6 6 7 7 7 6 6 6 5 5 5 5 6 5 5 3 3 4 3 3 3 5 5 5 5 7 6 4 9 6 10 8 9 5 8 9 8 10 10 10 9 7 9 9 9 10
4 5 4 2 5 11 5 6 7 6 7 8 9 8 7 8 8 9 8 9 8 7 5 4 7 8 7 7 7 7 6 5 4 5 5 6 7 7 7 6 6 6 6 6 7 6 6 5 5 5 4 5 4 4 2 2 4 4 4 3 5 5 6 6 6 6 8 9 7 5 7 7 7 8 9 9 7 7 7 9 10 10 10 10 9
2 3 5 5 5 8 7 6 6 6 7 9 10 9 8 7 7 6 8 10 8 7 6 5 8 7 5 5 5 4 4 4 3 2 3 5 5 5 7 7 7 7 5 5 6 6 7 6 5 5 5 5 4 2 0 2 3 3 3 4 5 5 6 5 6 6 7 7 8 6 5 7 3 4 8 10 10 8 7 8 6 8 9 8 10
3 3 5 4 2 1 11 4 5 5 7 8 8 8 8 7 7 7 8 9 7 6 6 6 5 10 9 9 7 6 6 6 6 4 3 3 4 4 5 6 6 4 5 8 6 5 7 7 7 6 6 5 4 3 2 2 1 1 1 1 5 5 8 7 6 5 5 3 3 4 7 5 5 6 7 10 11 11 11 7 7 8 8 10 10
3 2 2 2 1 3 4 11 4 5 6 8 7 7 7 8 7 7 8 8 6 6 7 10 10 9 9 9 7 6 7 7 7 6 5 4 4 4 4 4 4 4 6 5 6 5 4 5 5 5 5 3 4 3 3 3 4 3 3 3 2 4 6 8 8 6 5 5 5 4 4 7 4 3 3 6 4 4 6 6 9 8 9 9 11
1 3 2 2 1 2 2 5 9 2 8 8 7 6 7 7 8 8 7 6 6 8 13 13 12 11 9 9 7 7 8 6 5 5 5 5 4 4 4 5 7 8 8 7 6 6 4 4 4 3 3 7 7 6 6 6 6 5 4 5 4 6 4 4 4 6 4 5 5 4 7 6 7 6 4 8 10 11 9 7 8 9 8 6 6
2 4 5 3 2 2 3 2 2 8 3 4 6 5 6 8 9 8 6 6 7 11 12 12 11 10 10 9 7 7 7 4 5 7 4 3 4 4 3 4 4 6 8 8 6 6 6 4 4 9 10 11 10 11 13 12 9 6 5 6 4 6 6 6 6 6 6 6 2 1 3 4 6 6 7 6 8 6 7 9 10 10 8 8 4
4 2 4 3 3 4 3 2 4 2 4 6 0 7 7 8 8 7 7 7 11 12 11 11 10 9 10 9 9 7 6 4 8 7 9 9 5 4 2 1 3 4 7 8 7 6 5 5 5 6 7 7 8 11 12 13 12 10 9 9 6 6 6 6 4 4 3 3 1 4 3 1 1 2 2 3 1 4 6 7 8 6 6 5 5
9 8 6 4 5 5 1 3 4 6 4 5 2 3 8 8 8 7 9 11 10 11 11 10 9 9 9 9 9 6 6 7 8 8 6 8 6 3 4 2 2 3 3 6 6 6 6 7 5 5 6 5 4 4 6 7 9 10 10 9 9 7 6 5 4 3 2 2 2 1 1 0 1 2 1 2 3 4 4 3 1 4 4 4 3
10 11 12 9 4 6 3 3 2 3 4 2 2 3 7 8 8 10 11 10 11 12 10 10 10 8 9 10 9 7 6 10 9 9 9 9 8 5 6 5 7 6 4 6 8 7 7 8 7 6 5 10 8 5 4 4 5 6 7 7 5 6 5 5 4 3 5 2 1 1 1 0 0 1 0 1 0 2 3 5 4 4 2 3 5
14 12 12 13 10 3 5 6 4 3 4 4 5 4 8 9 10 10 10 11 12 11 11 11 9 9 8 9 9 7 7 9 10 10 10 10 9 6 4 5 6 5 7 9 9 8 7 8 7 7 6 8 8 7 4 5 5 5 6 5 5 5 7 9 9 10 7 2 0 1 2 0 2 2 2 1 0 1 1 3 1 3 4 4 5
15 14 13 12 13 14 3 8 8 6 5 5 8 7 8 10 11 9 10 11 11 10 10 10 8 8 7 7 9 8 6 9 10 11 11 10 10 7 4 5 7 9 9 9 9 9 9 9 9 8 8 9 7 7 5 5 5 6 6 6 7 7 8 9 8 6 6 5 4 2 3 2 1 1 0 0 1 1 2 2 3 4 5 3 3
13 15 15 13 14 13 12 9 11 10 10 10 11 8 5 10 11 11 12 11 10 10 9 9 9 8 6 8 10 9 7 12 12 12 12 10 9 6 5 7 10 10 10 10 10 9 9 9 9 9 9 9 11 15 11 7 8 8 7 6 7 6 7 5 8 8 7 6 5 4 4 4 4 5 5 3 2 2 3 3 3 3 5 6 7
13 13 14 13 14 14 13 11 11 11 10 11 11 11 8 8 8 9 12 10 10 10 9 8 7 8 8 8 9 8 8 11 13 13 13 12 10 8 8 10 11 11 9 9 10 10 9 8 8 8 9 9 10 13 12 11 8 8 7 7 6 5 6 7 8 9 11 11 10 11 12 12 10 9 9 8 6 3 5 7 7 6 7 8 8
12 12 12 11 14 15 15 13 10 13 13 13 11 9 9 8 9 8 11 11 11 9 8 9 8 8 9 8 7 9 7 10 13 14 15 15 11 9 8 10 10 10 9 9 9 10 10 14 10 9 9 7 10 13 13 10 8 6 6 5 6 6 6 7 8 8 10 8 6 8 7 9 11 11 10 10 7 2 1 6 6 5 7 7 9
12 12 12 11 14 14 13 13 10 11 14 12 10 10 10 9 8 10 10 10 10 9 9 9 8 8 7 7 10 10 8 9 13 15 16 14 11 8 8 9 10 8 8 8 7 7 7 9 12 10 8 6 10 10 10 8 5 4 3 3 3 3 3 5 6 8 10 11 11 12 11 10 8 6 7 12 12 6 5 7 6 6 8 8 8
10 10 10 10 11 12 11 12 11 12 14 12 10 9 8 8 10 11 10 9 10 9 9 8 9 7 6 7 7 8 10 9 12 16 15 15 13 9 7 9 8 7 6 7 7 6 6 6 6 9 10 10 9 9 8 8 5 3 3 3 3 3 3 4 3 3 5 5 6 7 7 7 8 7 6 6 7 5 4 5 5 6 7 9 9
8 9 10 11 12 12 10 10 11 12 12 11 9 10 9 8 10 10 9 8 8 8 8 8 9 7 6 6 8 8 8 9 11 15 16 15 14 11 8 8 6 7 6 7 6 6 6 5 4 6 8 7 7 6 6 5 4 3 2 2 2 1 2 3 3 4 3 4 4 5 7 7 7 6 6 6 6 6 5 4 4 5 6 8 9
9 10 11 11 11 12 12 13 13 12 12 11 10 10 9 8 7 7 8 7 8 8 8 7 7 8 7 6 7 8 8 10 9 12 14 15 14 14 9 6 4 7 7 6 6 5 4 3 3 4 6 5 5 4 3 2 2 1 1 1 4 5 2 2 3 3 3 3 5 6 6 6 7 7 7 6 6 5 5 6 6 6 6 7 9
7 9 10 10 10 11 11 12 11 10 11 11 11 11 10 11 11 10 8 7 6 6 5 5 6 6 7 6 5 6 6 7 11 10 12 13 13 13 12 9 9 7 7 7 5 4 3 3 1 3 6 6 6 6 5 3 2 1 1 2 2 2 2 1 3 4 5 5 5 6 6 6 7 7 8 7 7 7 6 5 5 6 7 7 8
6 6 7 9 9 9 9 10 10 10 10 10 11 11 10 10 10 8 8 6 5 4 3 4 5 6 7 6 5 5 5 6 9 11 9 12 11 11 10 10 9 7 7 5 4 4 4 3 3 5 6 7 6 6 6 7 4 5 2 2 3 3 1 1 2 3 3 3 4 5 6 6 5 6 6 6 6 6 6 5 6 6 8 8 7
7 7 6 5 5 6 6 7 7 8 8 9 9 9 10 10 9 9 8 8 7 5 3 2 4 5 6 7 5 4 5 6 7 9 13 12 13 12 11 9 9 9 7 4 3 3 3 7 8 8 7 6 5 4 4 4 6 7 8 9 4 1 2 3 4 4 6 6 6 6 5 6 5 4 4 4 4 4 4 5 4 4 5 5 4
6 6 7 6 7 7 8 7 8 8 8 6 7 6 7 7 7 7 7 6 7 7 6 7 6 5 6 5 5 5 5 5 5 6 7 8 9 12 12 12 9 8 7 6 7 6 6 7 8 8 8 6 4 5 5 6 7 10 13 10 5 5 4 5 5 6 6 6 6 7 7 6 6 6 4 4 6 7 6 7 7 8 8 9 11
8 8 7 6 5 6 6 6 7 7 6 6 6 6 5 5 6 5 4 5 6 6 7 7 7 8 7 6 5 5 5 5 5 5 5 5 5 6 6 7 8 7 5 6 6 5 6 6 6 6 6 8 9 8 9 8 9 8 7 7 6 7 7 7 6 7 6 6 6 6 5 5 5 7 8 8 8 8 7 7 7 7 6 6 5
6 6 7 7 5 4 6 6 7 5 6 6 6 5 5 4 5 5 4 3 5 5 6 6 6 6 5 5 4 5 5 5 5 5 5 4 4 4 5 5 5 4 5 5 5 4 4 5 7 8 8 8 8 7 7 7 7 7 6 6 6 6 7 8 8 7 6 5 5 6 6 7 8 7 7 7 6 7 7 7 7 8 6 5 6
5 6 6 6 5 4 5 5 5 5 5 6 6 5 4 4 5 4 5 4 1 5 7 6 5 4 5 4 5 5 5 5 3 2 2 3 4 5 5 5 5 4 5 6 4 4 5 7 7 8 8 7 7 7 7 8 7 7 7 7 7 7 7 7 7 7 6 7 8 7 7 7 8 8 8 8 7 7 7 8 7 8 8 5 4
7 7 6 6 7 6 3 5 4 5 5 5 6 7 9 11 6 4 4 7 11 10 5 5 5 5 7 4 3 5 4 2 1 2 3 4 4 4 3 4 4 4 6 6 3 4 4 6 7 8 7 7 7 7 6 6 6 7 6 6 7 7 7 7 7 6 7 7 7 7 7 6 7 7 7 7 7 6 6 6 7 7 6 7 7
5 5 6 6 6 6 4 5 5 4 5 5 5 4 4 7 10 10 7 8 9 11 11 10 9 7 7 6 4 7 7 4 2 1 4 4 3 2 2 4 5 5 5 4 5 6 6 9 7 7 6 7 6 6 6 6 7 7 7 7 7 8 7 7 7 6 7 6 7 6 5 5 6 6 7 7 8 8 7 7 6 7 6 7 6
4 4 4 5 6 7 5 7 6 4 3 4 5 5 5 5 5 8 10 9 9 10 10 10 10 9 8 5 4 4 5 5 6 6 5 5 5 3 1 5 5 3 1 0 7 7 8 7 7 7 7 8 7 6 6 6 6 6 6 7 7 6 6 6 4 5 6 6 6 6 6 6 6 7 7 7 7 7 7 8 7 7 6 6 6
4 4 4 6 7 6 5 7 6 6 4 3 2 4 5 6 7 4 6 8 9 9 9 10 10 10 10 10 9 6 5 4 4 4 4 4 6 6 4 9 8 3 2 6 8 7 7 7 6 6 6 6 5 6 6 7 7 6 6 5 6 5 6 4 3 6 5 5 5 6 5 6 6 6 6 6 7 7 8 8 8 7 7 6 6
2 3 5 6 7 5 5 5 5 5 5 4 3 3 3 4 5 6 6 4 5 6 6 7 7 6 7 5 5 6 6 7 8 9 11 11 10 10 11 7 8 5 7 7 8 7 6 7 6 6 6 6 6 5 6 6 6 6 6 5 5 5 5 4 6 6 6 6 6 5 5 5 5 6 7 7 7 7 8 8 8 8 8 7 6
4 5 8 6 5 4 3 4 4 3 4 6 7 4 2 4 6 5 6 6 6 4 1 3 5 4 3 5 6 6 5 7 10 12 14 14 12 9 11 10 9 8 9 8 7 7 7 7 7 7 6 6 6 5 6 6 5 5 5 6 6 5 6 6 6 6 6 5 5 6 6 7 7 7 6 7 7 8 8 8 8 8 7 8 6
5 5 4 6 6 4 4 3 2 4 6 5 5 5 6 5 3 5 4 6 5 6 3 0 2 5 5 5 2 3 7 9 10 13 15 16 14 12 10 7 7 7 7 7 7 6 7 7 7 6 7 6 5 5 5 5 6 6 5 5 5 5 6 5 5 5 5 5 6 6 6 7 6 7 6 6 6 6 6 7 6 7 7 7 6
4 3 5 4 4 3 3 1 1 2 4 4 4 7 8 8 7 6 6 5 4 5 6 4 3 4 5 5 5 5 5 6 12 14 15 14 14 10 7 7 6 6 6 7 7 6 6 6 6 6 6 5 5 4 5 5 5 5 5 5 5 5 4 4 4 5 5 5 5 5 5 5 6 5 5 5 6 6 6 6 6 6 6 8 7
3 2 1 3 4 5 3 2 0 5 4 4 6 7 7 7 7 6 7 7 7 7 6 3 3 3 5 4 7 6 3 7 13 12 11 11 9 8 7 6 6 6 6 6 6 5 6 6 6 5 5 5 4 5 5 5 4 4 4 4 5 4 5 5 5 4 4 4 4 5 4 4 5 5 5 4 5 5 6 6 6 7 7 8 7
3 2 5 5 5 4 3 0 0 6 6 6 6 6 7 8 7 7 6 6 7 6 5 3 3 3 3 3 5 5 7 6 6 6 6 6 6 6 6 6 6 6 6 6 6 6 6 6 5 5 4 5 5 4 4 4 4 3 4 5 5 4 4 3 3 2 2 2 3 3 3 4 3 3 3 4 5 5 5 5 5 5 6 6 6
4 1 3 5 5 5 5 2 2 6 5 6 5 5 6 7 7 6 5 6 6 5 5 5 5 5 3 2 5 6 7 6 5 5 6 6 6 6 6 6 6 6 6 5 5 5 5 4 4 4 3 3 3 4 4 4 3 3 4 4 3 1 0 0 0 1 1 2 2 3 3 4 3 3 3 3 3 3 4 5 4 4 4 5 5
3 0 2 4 4 5 6 5 1 4 6 5 6 5 6 6 6 6 6 6 5 5 5 5 4 2 3 4 7 8 8 6 5 5 6 6 5 5 5 5 5 6 5 4 4 4 4 4 4 3 3 3 4 5 5 4 5 4 4 2 2 1 1 1 1 1 2 2 2 2 3 3 3 3 5 5 4 3 3 3 3 4 4 4 4
3 4 5 5 4 3 3 1 4 5 6 5 6 6 7 6 6 5 6 4 5 4 5 4 4 3 6 14 13 11 7 5 5 6 6 5 5 5 4 4 5 4 4 3 3 3 4 4 3 3 3 4 4 4 4 4 4 2 1 1 0 0 1 3 3 3 4 4 3 3 3 3 3 3 3 4 5 5 5 5 4 3 4 4 4
4 2 7 7 5 7 1 3 4 6 6 6 5 5 5 5 4 4 5 5 4 6 5 5 3 3 7 8 10 10 6 6 5 5 5 5 5 4 4 4 4 5 4 3 3 4 5 3 1 0 1 1 2 2 1 2 2 2 2 2 3 4 4 3 3 2 3 3 3 4 4 4 5 4 5 4 5 5 5 5 5 5 4 4 4
5 7 6 6 6 4 2 4 7 6 7 6 6 7 5 5 4 5 3 4 5 5 5 3 2 4 5 6 6 7 6 4 3 3 5 5 5 4 3 3 2 3 3 4 3 5 4 1 1 1 2 3 3 3 4 2 1 4 4 3 3 4 4 4 5 6 5 4 4 4 4 4 4 4 5 5 4 5 6 6 6 5 5 3 3
4 0 4 6 5 2 4 4 6 7 7 6 6 5 4 5 4 2 3 4 5 3 5 5 6 6 5 5 5 5 4 3 2 2 3 5 3 2 1 0 1 3 3 2 2 2 1 1 1 1 2 3 4 4 3 2 3 4 3 4 3 3 3 3 3 4 3 4 5 5 4 4 5 5 4 4 3 3 5 5 5 5 4 4 2
1 3 4 6 4 0 3 4 5 7 6 6 6 5 5 6 4 2 3 5 3 5 4 6 5 5 4 5 5 5 4 5 2 1 4 4 4 2 1 1 1 4 4 4 3 3 2 2 1 1 1 2 3 6 6 5 3 3 4 4 4 2 1 1 2 3 6 5 5 4 4 4 5 5 5 5 5 5 4 5 6 5 4 3 2
5 2 5 5 7 1 3 3 5 6 5 5 4 4 3 4 4 3 2 2 3 3 4 4 5 5 6 4 4 3 4 3 3 2 2 4 4 3 1 2 2 2 4 4 3 3 2 1 2 2 1 3 5 4 4 4 4 3 4 4 3 3 3 3 4 3 4 3 3 5 4 2 4 4 6 6 6 6 5 6 5 5 6 4 4
2 3 4 3 6 6 2 5 5 6 5 5 5 4 4 4 4 3 2 1 2 3 4 3 5 5 5 5 5 4 3 4 4 4 3 5 4 3 3 3 3 3 2 4 4 3 2 1 1 1 2 4 4 4 3 3 4 5 4 4 3 3 5 4 3 4 3 4 4 4 3 2 2 2 3 4 5 5 6 7 6 6 6 5 5
0 2 4 5 6 4 2 4 6 6 6 6 5 4 4 5 6 5 2 1 1 2 5 5 4 4 6 6 4 4 6 6 4 3 3 6 4 4 3 3 4 4 3 2 3 4 3 2 2 5 5 4 4 4 4 3 3 4 4 3 4 6 7 6 4 5 6 4 4 4 4 4 3 2 2 3 5 4 5 5 5 6 6 5 5
4 4 4 7 5 3 1 5 7 5 5 6 5 4 3 4 5 4 3 2 2 1 4 5 5 5 4 3 4 6 6 3 4 3 5 6 5 3 3 3 3 2 2 3 3 4 2 1 4 5 5 4 4 4 3 3 3 3 3 4 6 7 7 7 6 7 6 4 4 3 3 3 5 4 4 5 4 5 5 5 5 5 5 5 4
4 5 6 5 6 2 1 5 6 5 5 4 5 5 5 5 5 4 3 1 0 1 0 4 5 6 4 4 4 3 3 5 6 3 7 6 4 4 4 3 3 2 1 2 3 2 5 5 5 5 4 4 4 3 3 3 3 3 5 6 6 7 7 7 6 8 8 5 3 3 3 5 4 5 4 5 5 5 5 4 5 5 5 5 3
Wind_Direction
252 259 246 226 178 180 177 168 163 150 142 140 135 133 130 130 130 131 126 133 140 138 146 145 140 139 141 145 146 139 145 149 151 162 172 152 160 179 164 162 161 189 161 164 180 180 190 192 189 186 170 173 179 182 183 197 193 212 147 118 189 143 172 142 143 159 93 165 149 159 165 149 161 165 159 169 176 193 187 181 168 174 188 194 204
225 254 278 271 183 176 169 171 157 149 144 143 136 135 136 135 134 129 133 144 138 145 148 148 151 149 149 151 146 144 142 144 149 156 165 164 160 172 171 161 160 176 179 180 183 191 182 182 183 173 169 161 175 176 184 180 193 205 228 184 235 161 188 133 153 153 147 151 130 139 158 169 153 175 162 170 186 186 189 187 184 190 194 195 199
3 77 0 315 304 181 165 167 158 151 145 142 139 139 140 136 132 133 136 145 137 130 136 144 143 138 130 138 137 141 142 145 140 149 155 162 169 179 174 173 168 167 182 194 191 187 166 171 177 169 159 161 180 194 170 181 190 193 218 210 221 180 189 153 140 142 146 174 165 154 170 183 171 178 181 179 183 185 189 194 191 196 202 197 204
50 67 37 344 317 288 163 165 159 153 144 144 142 143 139 135 136 136 144 136 133 134 126 131 104 114 113 108 116 128 134 138 136 152 157 162 170 178 179 182 177 173 178 184 184 173 170 155 175 168 157 163 187 198 199 180 200 199 219 213 211 183 165 161 156 140 152 143 191 170 181 172 209 175 179 182 178 187 196 196 193 199 202 203 207
124 116 106 138 278 283 206 171 167 160 152 147 143 141 136 136 137 140 130 130 133 133 136 114 122 116 119 127 128 135 149 152 155 162 165 169 171 172 177 180 185 185 182 177 170 165 161 155 159 155 144 157 188 200 227 204 217 203 237 227 214 167 161 165 168 150 147 157 170 199 175 192 186 176 175 174 190 199 201 199 198 203 206 207 208
98 135 157 178 208 279 250 176 163 161 153 149 147 143 141 138 139 132 126 129 133 133 134 123 132 133 121 95 82 75 73 89 106 114 152 177 176 165 171 179 180 182 177 174 161 158 153 149 148 144 151 166 175 143 118 214 216 218 254 249 213 148 144 156 150 162 165 162 153 172 196 185 185 183 182 181 176 189 207 217 212 212 207 212 218
121 154 152 188 196 7 298 238 161 158 151 152 148 143 141 142 139 130 130 127 133 134 135 133 86 85 88 84 74 73 67 57 52 38 45 90 149 162 152 169 178 150 172 169 157 148 154 154 151 161 169 173 131 132 131 63 172 147 23 219 214 151 139 147 149 138 126 140 153 161 183 217 182 192 191 186 186 184 193 199 222 218 212 211 221
25 337 287 274 175 136 294 292 221 155 154 149 149 145 139 136 129 128 127 125 130 127 105 90 94 88 84 87 79 78 72 56 39 21 23 35 77 100 93 99 100 128 155 130 132 152 160 149 155 172 159 129 122 155 129 109 88 88 13 24 144 144 137 144 148 147 147 170 181 158 190 200 252 246 150 167 171 231 227 191 210 216 220 220 221
28 311 295 276 255 179 176 322 296 238 153 147 145 145 138 126 125 129 126 125 119 108 103 104 98 93 80 80 79 68 67 57 46 23 5 7 29 64 74 90 97 98 100 117 139 143 152 148 147 151 105 94 123 143 120 124 120 90 49 65 78 101 83 69 90 116 139 155 179 162 175 196 210 213 177 167 190 203 206 191 215 222 221 235 253
352 337 318 265 246 204 141 149 317 316 296 137 141 139 126 124 127 126 123 120 111 95 104 103 102 103 99 81 71 65 57 49 28 30 21 347 5 24 54 84 101 111 109 114 121 137 148 138 134 129 117 123 128 113 106 102 103 113 117 98 90 88 95 89 81 92 96 82 68 155 158 204 201 197 199 208 198 193 183 195 212 228 219 219 241
317 229 260 245 167 164 156 160 109 50 340 342 322 133 124 129 123 119 116 96 87 98 100 98 98 96 94 91 74 66 53 22 21 38 30 19 18 30 25 40 89 112 122 128 135 128 117 107 94 95 102 108 108 113 117 114 111 107 98 97 110 119 106 92 107 120 119 117 124 88 113 93 302 255 244 267 294 192 207 185 193 179 183 190 231
359 356 321 224 167 135 143 167 125 128 162 154 283 121 132 126 120 111 97 94 94 94 92 94 95 93 91 86 76 63 55 18 25 50 49 41 37 16 35 32 49 54 75 114 132 128 107 85 68 57 50 54 82 73 66 74 108 119 117 108 94 82 104 135 133 84 120 121 92 122 119 145 296 356 21 45 355 359 349 348 242 208 218 213 223
9 3 356 319 181 150 168 195 104 99 122 126 102 110 111 107 103 98 101 102 97 92 95 92 88 86 88 85 75 55 49 12 18 34 42 36 24 39 52 79 75 84 89 97 112 101 97 88 75 49 31 33 37 38 79 72 55 65 93 89 82 93 92 84 102 147 163 124 131 229 191 187 353 273 191 9 151 25 344 354 335 334 298 271 252
24 14 3 3 331 188 155 134 121 137 123 111 82 74 92 94 97 101 101 95 93 94 88 87 85 82 82 87 82 64 46 9 18 29 38 37 26 38 53 75 89 82 76 85 95 97 92 93 82 59 34 36 25 16 30 60 54 50 43 39 52 43 40 35 28 22 25 70 137 260 279 46 255 232 267 285 26 284 1 295 261 281 280 247 230
34 21 17 5 22 1 36 103 99 88 79 81 90 74 88 93 91 92 92 93 95 94 96 90 84 83 82 86 82 62 37 19 29 32 35 38 40 50 59 82 77 70 68 72 78 82 82 81 81 72 49 37 21 8 18 36 55 51 48 41 38 42 58 48 36 31 29 24 33 330 306 304 280 273 161 63 117 193 190 206 235 240 253 261 305
34 37 20 18 23 27 17 37 71 68 64 71 60 42 45 89 95 95 92 90 89 92 83 86 87 85 80 79 78 62 33 24 32 36 39 39 56 64 75 85 75 69 57 56 65 72 73 74 76 68 59 52 22 33 38 47 49 40 35 24 31 41 48 47 38 45 41 30 19 3 339 313 288 303 309 312 305 299 329 314 322 313 315 300 269
26 31 36 16 33 31 26 26 50 57 61 61 66 65 35 48 76 92 90 86 88 84 91 88 89 86 77 70 76 66 44 23 34 39 41 40 59 62 68 73 78 72 64 63 65 67 68 70 75 74 61 51 34 45 44 61 57 48 38 25 16 28 14 356 354 16 11 5 1 0 355 352 345 328 312 300 290 330 349 338 302 295 297 288 276
25 26 33 24 38 37 29 22 32 61 55 56 55 57 64 51 42 52 85 90 83 82 85 82 74 74 75 72 72 77 56 31 42 46 47 47 59 70 73 83 84 86 79 69 72 72 67 71 73 69 64 51 40 45 41 53 59 55 49 36 24 7 355 354 350 344 351 351 0 352 342 339 337 329 320 307 291 206 259 279 275 292 275 262 270
27 26 25 29 39 44 38 26 10 50 59 51 47 52 53 52 63 59 65 76 79 78 76 80 76 67 68 75 74 75 66 41 44 55 54 54 61 60 66 82 86 87 93 84 76 77 67 55 63 72 79 72 59 50 41 50 71 61 56 70 38 17 356 352 2 352 349 349 344 349 344 344 340 329 313 305 297 265 213 243 264 253 262 266 264
28 26 27 33 40 46 44 38 20 35 55 51 44 47 50 52 55 64 60 66 75 73 72 71 73 63 59 69 68 70 70 55 48 57 59 59 67 75 59 69 78 90 94 100 91 74 69 64 56 61 64 58 56 55 53 53 63 45 51 66 48 9 336 346 354 359 329 327 316 324 315 316 322 326 323 321 314 301 265 244 250 244 256 266 264
43 39 35 39 40 43 42 42 33 35 46 50 44 43 41 46 55 60 63 63 69 67 69 73 77 72 60 59 71 64 71 73 54 58 59 58 58 73 74 70 73 82 82 75 79 83 70 58 56 58 68 71 66 55 59 50 47 33 30 40 46 242 334 349 326 350 321 314 317 317 317 319 318 315 310 309 305 308 308 288 260 249 256 271 276
53 47 46 43 43 39 39 33 31 32 34 37 39 42 38 42 52 62 64 65 69 75 77 80 80 79 70 60 63 68 63 66 70 57 62 60 58 59 75 73 83 98 83 78 78 81 89 93 61 32 35 46 55 76 76 46 345 72 306 9 22 6 351 314 309 315 318 323 323 323 321 324 319 317 314 311 308 309 315 312 313 302 276 262 260
56 58 53 51 47 47 42 40 36 35 35 34 40 41 35 38 36 39 48 58 64 70 79 92 99 91 85 69 58 59 58 62 63 61 56 62 61 61 64 65 54 68 86 86 74 68 87 99 117 11 357 7 13 12 21 41 123 166 248 7 307 287 295 324 315 326 329 332 339 325 316 318 325 321 318 324 322 323 328 332 347 357 340 314 280
49 48 60 63 61 55 53 50 45 39 36 36 36 36 36 36 37 36 39 45 55 87 96 102 104 104 96 84 69 51 42 53 45 43 47 47 53 60 61 58 56 71 74 83 75 53 22 14 349 332 346 348 0 4 2 5 353 340 2 154 177 217 221 266 268 262 279 305 321 320 323 321 327 327 329 324 326 326 323 338 356 3 1 353 353
47 48 43 48 59 69 61 55 48 44 40 42 45 38 32 32 33 19 31 37 35 43 60 108 123 124 109 99 92 73 49 43 40 26 29 35 39 43 52 56 51 59 68 61 63 44 356 340 340 342 341 340 356 30 43 32 19 350 328 319 329 19 344 330 332 344 352 347 340 339 341 335 325 320 317 318 312 327 339 347 350 1 354 347 326
36 37 36 37 48 64 70 62 61 66 66 63 64 59 58 45 41 28 33 30 38 49 43 41 41 70 107 101 77 61 47 44 39 32 22 25 30 35 46 51 56 65 66 46 22 26 3 339 342 350 353 3 17 21 23 16 17 34 34 37 36 22 2 352 348 11 10 4 5 1 345 341 347 333 334 342 7 358 350 351 354 354 360 353 351
39 31 28 29 40 53 58 71 72 63 61 67 64 63 67 73 67 53 41 41 47 50 48 49 53 66 84 80 76 63 52 38 29 34 29 23 26 24 34 36 44 45 32 16 7 5 352 360 341 339 10 44 68 71 60 47 45 38 42 45 46 40 36 36 38 40 30 23 15 1 344 334 331 2 5 1 354 349 353 347 347 336 350 346 347
48 40 21 23 42 64 71 63 63 57 51 49 51 54 59 69 80 64 44 39 71 66 68 64 63 69 84 91 91 75 57 42 21 14 13 19 22 33 36 39 30 28 20 4 348 344 346 352 27 50 58 55 48 47 43 45 47 41 35 36 35 33 32 33 43 46 34 23 14 358 2 4 6 354 353 358 352 344 345 345 338 328 334 343 347
30 25 21 24 21 57 96 86 89 90 83 69 57 42 31 55 76 70 23 353 7 112 99 83 87 82 79 73 78 66 51 41 14 321 326 9 36 22 26 21 16 28 26 0 339 354 19 42 48 52 58 58 49 43 37 37 31 30 30 25 25 28 31 39 40 31 15 19 16 9 3 2 0 357 355 352 350 342 338 338 326 325 317 327 311
17 11 11 14 1 351 75 124 117 110 105 102 96 72 55 56 49 73 59 23 34 27 59 112 126 113 89 56 47 96 101 123 231 327 346 21 23 29 26 36 47 38 3 9 59 37 22 51 54 61 57 57 53 46 42 45 42 32 21 23 29 34 33 34 38 28 23 27 18 20 9 2 360 353 345 337 327 328 321 320 313 310 306 305 305
24 11 11 2 360 343 339 78 130 131 109 102 89 96 84 47 47 54 64 52 40 39 45 53 67 81 105 100 50 73 101 112 131 65 36 17 4 359 19 80 70 51 13 26 38 47 42 62 56 57 59 63 58 50 48 47 38 39 25 24 30 35 34 36 26 24 27 28 23 16 5 4 351 340 341 334 331 326 325 316 308 311 306 298 299
25 11 355 356 353 1 345 21 46 94 126 120 117 117 99 90 52 36 41 42 44 44 42 45 48 54 65 89 117 137 113 78 50 34 10 352 322 308 79 115 122 120 173 82 67 55 65 71 63 55 55 54 45 47 48 44 38 39 37 40 33 29 40 37 5 38 36 34 19 11 5 1 355 345 343 339 334 326 321 320 313 307 302 300 293
19 359 358 9 6 14 34 49 38 43 69 119 157 141 137 135 111 80 27 32 44 40 33 25 26 29 41 40 45 69 65 53 52 34 8 341 324 324 27 97 117 107 56 58 73 68 65 69 69 64 62 67 57 57 48 45 42 40 48 52 44 28 41 27 32 43 35 29 26 14 3 356 350 343 339 340 349 348 344 341 332 318 307 305 300
325 7 23 13 21 9 32 50 43 31 29 72 135 175 181 148 146 136 115 86 32 16 9 13 19 22 22 19 21 17 20 27 26 17 12 11 27 66 97 94 101 69 78 77 69 68 63 61 57 54 51 48 47 48 50 47 47 47 46 44 44 42 34 22 39 28 26 22 20 4 2 357 358 3 360 359 360 358 356 349 350 352 341 329 309
335 350 16 27 34 16 5 52 59 37 35 22 12 27 79 148 147 139 138 135 130 115 63 344 351 358 339 348 337 341 5 37 25 22 24 28 40 72 74 65 51 38 41 45 60 62 63 59 53 43 39 37 26 39 52 56 51 44 48 47 44 41 30 30 31 27 24 13 10 9 5 8 3 5 7 3 3 2 356 352 352 352 345 342 348
32 27 19 17 13 24 357 3 47 67 49 29 9 30 24 29 113 151 151 137 132 133 127 34 331 325 331 307 288 308 340 14 34 37 39 37 33 47 63 62 63 52 55 45 55 56 62 64 58 42 37 25 33 44 53 52 48 45 43 59 58 48 41 34 31 27 17 19 13 5 4 6 4 2 356 2 6 1 353 350 345 349 350 350 345
66 40 12 359 352 5 10 338 8 74 70 41 46 42 35 32 32 64 80 97 116 101 95 73 20 353 0 12 0 353 11 19 50 51 46 41 41 50 62 69 80 65 54 52 52 54 59 58 61 48 36 25 31 46 48 41 40 45 47 59 66 61 44 47 32 31 23 17 4 4 5 358 356 355 0 357 358 359 359 353 348 349 358 359 3
100 65 6 6 355 346 13 33 5 345 12 54 62 64 58 51 52 47 55 58 72 96 99 87 68 57 40 350 25 40 40 49 54 45 38 35 37 43 48 59 65 70 62 55 55 58 67 61 57 50 37 28 22 25 34 33 32 46 71 68 61 57 48 33 22 19 17 17 0 355 355 355 349 351 359 4 358 355 356 357 353 352 354 7 13
108 47 347 2 356 326 321 194 76 67 56 39 44 60 73 71 57 45 46 64 80 89 100 116 102 78 53 31 40 14 48 37 64 65 50 45 47 54 59 57 57 58 58 54 48 45 57 64 58 45 34 24 24 17 9 12 28 47 66 73 61 42 30 16 16 3 5 353 346 342 353 344 346 345 357 4 3 359 355 355 358 358 356 360 1
82 29 336 356 334 327 338 353 90 101 104 102 88 86 81 81 82 79 59 51 70 93 96 83 62 53 34 36 35 43 66 68 78 82 75 58 50 43 53 58 60 63 61 50 43 47 69 67 67 52 29 20 12 9 12 17 14 52 74 79 89 66 289 165 110 6 320 298 314 328 347 342 332 335 348 10 352 343 353 354 347 358 350 347 346
132 59 314 306 289 308 316 322 40 105 117 106 113 101 103 103 101 97 87 74 83 103 99 91 85 76 72 71 68 77 86 86 81 84 87 78 64 54 49 63 74 75 73 67 50 52 83 91 79 74 31 16 8 19 12 13 4 27 91 116 137 213 250 269 242 250 264 285 288 325 328 320 335 358 348 329 328 333 334 329 342 3 357 350 355
84 4 324 310 305 284 266 334 107 93 105 110 97 100 105 102 102 99 93 90 90 115 107 91 86 62 56 63 70 78 81 76 73 71 71 77 74 62 59 70 85 89 92 70 48 56 84 85 85 74 46 12 5 7 13 5 7 338 120 130 168 261 282 285 276 267 265 263 279 272 276 299 306 314 303 304 321 332 334 340 339 342 353 346 345
72 12 304 308 314 311 247 163 97 83 79 65 62 68 85 96 92 102 97 83 72 102 119 115 110 68 69 64 81 79 74 71 64 72 82 95 90 78 74 83 118 127 114 92 49 70 83 83 64 355 342 309 302 306 334 329 325 13 48 45 42 45 26 12 8 345 351 347 305 289 293 291 295 295 300 306 310 316 311 311 316 321 313 322 329
47 13 334 316 310 348 111 115 98 103 99 100 85 71 81 84 79 67 62 76 66 89 126 126 100 62 83 73 73 77 77 80 78 94 103 106 114 134 148 152 116 101 107 105 91 84 90 83 308 277 263 270 273 287 289 281 123 101 85 76 54 40 29 9 358 353 340 346 4 354 339 321 315 304 299 299 305 307 309 317 317 314 307 288 297
70 35 285 301 317 3 143 132 134 125 116 100 95 93 97 104 100 92 83 71 64 83 116 126 119 97 76 93 98 100 110 93 47 73 105 105 109 114 123 108 118 116 108 117 129 117 136 212 269 305 318 301 293 276 282 0 48 89 110 112 98 61 25 354 327 304 331 8 360 353 3 13 7 2 351 329 304 293 305 304 297 304 332 343 306
69 293 296 285 306 2 181 144 135 118 123 126 130 129 132 124 123 113 75 55 74 131 122 116 110 114 115 99 104 121 117 102 72 36 113 130 122 123 101 46 92 130 141 148 138 121 148 171 194 247 303 2 31 47 55 72 69 58 61 67 72 65 353 314 301 356 16 9 347 337 330 10 11 9 5 12 359 359 339 1 357 343 337 344 324
171 242 269 288 308 300 169 164 123 127 132 132 123 129 128 131 131 130 131 123 108 148 139 128 118 122 115 106 108 134 138 146 174 230 150 141 155 154 117 72 108 152 145 151 163 176 185 205 207 224 250 65 72 62 61 58 55 51 52 52 51 22 6 355 349 0 355 340 330 350 336 0 14 10 4 8 6 1 353 352 354 356 340 339 346
232 198 204 242 278 308 8 141 137 133 123 134 142 144 143 146 129 138 159 179 98 123 144 136 137 137 136 146 149 148 166 195 202 208 145 134 143 130 111 84 95 169 170 143 161 175 189 192 191 123 81 80 85 76 67 51 44 36 38 36 33 7 341 341 337 343 341 336 343 344 331 359 42 15 21 13 5 354 358 345 343 353 351 346 0
282 17 323 286 275 283 329 105 144 152 158 153 149 155 137 127 140 142 129 124 117 143 141 151 146 144 138 157 172 196 199 199 206 212 123 148 145 156 132 106 99 120 145 178 180 168 177 162 129 92 100 93 87 78 63 55 42 35 24 13 359 350 350 351 350 343 335 335 347 355 7 350 4 349 0 10 354 343 342 333 341 335 345 349 5
284 263 235 253 263 278 349 121 152 152 154 155 154 169 151 124 135 132 122 78 35 107 162 150 150 157 150 163 186 203 222 212 223 201 136 157 159 170 144 119 95 108 123 131 177 173 181 107 102 109 104 103 94 88 85 76 62 45 22 4 358 359 356 351 345 354 358 355 340 335 358 13 22 0 355 354 5 357 355 339 340 328 330 343 353
276 273 257 218 208 219 55 104 152 165 167 151 160 155 154 147 149 147 141 125 201 8 241 163 158 163 173 183 219 221 216 216 223 162 141 155 160 162 156 138 117 105 140 123 121 125 97 93 94 94 101 93 89 96 102 104 90 63 41 21 13 9 3 6 358 352 351 346 329 351 41 60 51 32 9 6 3 14 357 344 356 349 319 332 323